NIMBUS 2 DEB, 28615

Orbit data source: Space-Track

NIMBUS 2 DEB, 28615 is space debris in SSO originally from a launch on Sun, 15 May 1966 UTC launched from the Air Force Western Test Range (AFWTR). Debris objects in space refer to the collection of defunct objects orbiting the Earth. Examples of debris include non-operational satellites, rocket bodies, and fragments generated from explosions, collisions, or faulty payload assembly.

Loading next visibility...
Identifier
28615, 1966-040AE
Orbit
SSO
Last TLE update
20 hours ago
Origin
Manufacturer
Unknown
Mission
Spacecraft
Bus & Motor
Unknown
Mass
Unknown
Launch date (UTC)
1966-05-15 (59 years ago)
Launch vehicle
Unknown
Launch site
Air Force Western Test Range (AFWTR)
Object type
Payload
Rocket body
Debris
Shape & HBR
Unknown
Radar Cross Section
Small (<0.1 m²)

Expand to show TLE details & history

TLE from 20 hours ago
0 NIMBUS 2 DEB
1 28615U 66040AE  25199.15015477  .00004198  00000-0  35345-2 0  9998
2 28615 100.2717 312.9625 0031954 296.3758 184.7871 13.88297925559360
Epoch: 2025-07-18T03:36Z
TLE epoch observation values (Epoch: 2025-07-18T03:36:13.372Z)
Latitude
57.47753°
Longitude
159.12457°
Altitude
967.453 km
Speed
7.362 km/s
True Right ascension
09h 57m 32s
True Declination
57° 19' 33"
Sunlit
Object was in daylight at epoch
Visualization orbit readout
Latitude
-78.6957°
Longitude
28.00648°
Altitude
940.34 km
Speed
7.392 km/s
Apparent Right ascension
00h 24m 01s
Apparent Declination
-60° 43' 03"
Sunlit
Object is in daylight
Visualization observer readout
Local Sidereal Time
12:09:43
Azimuth
184.901° SSW
Elevation
-69.081°
Doppler factor
1
Orbital elements
Apogee altitude
955.241 km
Perigee altitude
908.524 km
Semi-major axis
7,310.02 km
Eccentricity
0.0032
Inclination
100.2717°
RAAN
312.9625°
Arg. of periapsis
296.3758°
True anomaly
184.75666°
Mean anomaly
184.7871°
Eccentric anomaly
184.77187°
Mean motion
3.47268 °/min
Orbital period
103.67 mins
BSTAR
0.0035345
Loading maneuver chart data...
Loading SW <> Apogee altitude chart data...
Loading historical data...
Loading historical data...
Loading historical data...
Loading historical data...
Loading historical data...
Loading historical data...
Loading historical data...
|